7 * 24
多渠道服务支持
STARLINK-36982(NORAD编号68278)是美国太空探索技术公司(SpaceX)星链(Starlink)星座的组网卫星,属于二代星链(Gen2)卫星。星链计划是全球规模最大的低轨互联网星座项目,旨在为全球提供高速低延迟卫星互联网服务,STARLINK-36982运行在近地轨道,采用紧凑平板设计,依托猎鹰九号火箭发射组网,和其他星链卫星共同构建覆盖全球的天基通信网络,支撑消费级互联网接入、特殊场景通信服务等应用。
美国
(US)
| 数据来源 | 国际轨道数据 |
| 星历时间: | 2026-09-13T11:43:25+0800 6小时前 查看轨道信息 |
| 半长轴: | 6840.925km |
| 偏心率: | 0.0000973 |
| 轨道倾角: | 53.158° |
| 近地点辐角 | 93.104° |
| 升交点赤经 | 164.193° |
| 平近点角 | 267.007° |
| 近地点: | 462.122km |
| 远地点: | 463.454km |
| 周期: | 93.849分钟 |
| 每日圈数: | 15.343717 |